Theta_e
287 287 287 287 287 286 285 282 289 285 285 286 286 287 286 285 285 284 283 283 283 283 282 282 282 282 282 281 282 283 285 286 287 288 287 288 288 289 290 290 291 291 291 291
288 288 288 287 287 287 284 280 282 281 286 281 284 284 285 285 285 285 284 284 283 283 282 282 282 282 282 281 281 280 281 283 285 286 286 287 288 288 288 289 289 290 290 290
288 286 287 287 286 286 285 281 282 285 285 283 285 286 286 284 284 285 285 285 284 283 283 282 282 281 280 279 280 280 279 280 281 283 284 284 285 286 286 287 287 288 288 289
286 286 287 286 285 285 285 284 284 285 285 283 285 286 285 284 284 283 284 284 284 284 283 282 281 279 279 278 278 278 278 279 279 280 281 282 283 283 283 284 285 285 286 287
287 286 286 285 285 284 284 284 284 284 285 284 283 284 285 285 284 284 283 284 283 283 282 281 280 279 279 278 278 277 277 278 278 278 278 279 281 282 282 282 283 283 283 284
286 286 286 285 284 283 283 285 283 283 283 283 283 286 286 283 283 284 283 283 283 282 281 280 280 280 279 279 278 277 277 277 277 277 278 278 278 278 279 280 281 281 282 282
286 286 285 284 283 283 285 284 282 281 281 281 282 282 282 281 282 282 282 282 282 282 281 280 280 280 279 279 278 278 277 277 277 277 277 277 277 278 278 278 278 279 279 280
283 285 285 283 283 284 282 280 279 279 279 279 279 278 279 279 281 281 281 281 281 280 280 280 280 279 279 278 277 277 276 276 276 276 276 276 277 277 277 277 278 278 278 279
282 284 281 281 281 279 277 276 277 276 276 276 276 277 277 277 278 278 279 280 280 279 279 279 279 279 279 278 277 276 276 275 275 276 276 276 276 276 277 277 277 277 278 278
280 280 280 279 279 278 275 274 275 274 273 273 273 274 274 275 275 276 277 278 279 279 279 279 278 278 277 276 276 275 275 274 274 275 275 275 275 276 276 276 276 277 277 277
281 279 279 279 278 275 274 274 273 272 271 271 272 272 273 273 274 275 275 276 277 277 278 278 277 276 276 275 275 274 274 274 274 274 274 275 275 275 275 275 276 276 276 277
278 278 276 276 274 273 272 271 270 270 270 270 270 271 271 272 273 274 275 275 275 276 276 276 276 275 275 274 273 273 273 273 273 274 274 274 274 275 275 275 275 275 276 277
274 274 272 272 271 270 269 268 268 268 268 269 269 270 270 271 272 273 272 274 274 275 274 275 275 274 273 272 272 272 272 272 273 273 273 274 274 274 274 275 275 275 275 276
272 270 269 269 268 267 267 267 267 267 267 267 267 268 268 269 271 271 272 272 273 273 273 273 273 273 272 271 271 272 272 272 272 272 272 273 273 273 273 274 274 275 275 276
269 268 267 267 266 266 266 266 266 266 266 266 267 267 268 268 269 269 270 271 272 272 272 272 271 272 271 270 271 271 271 272 272 273 273 273 273 273 273 273 273 274 275 276
267 267 266 265 265 265 265 265 265 266 266 266 267 267 267 267 268 269 270 270 271 271 271 271 271 271 270 270 270 270 271 271 272 272 272 272 272 273 273 273 273 274 274 275
265 265 265 265 265 265 265 265 265 266 266 266 266 266 266 267 267 268 269 269 270 270 270 270 270 270 269 270 270 270 270 271 271 271 271 272 272 273 273 273 273 273 274 275
265 265 264 264 264 264 264 265 265 265 265 266 266 266 266 267 267 268 268 269 269 269 269 269 269 269 269 269 269 270 270 270 271 271 272 272 272 272 272 273 273 273 273 275
264 264 264 264 264 264 264 264 264 264 265 266 266 266 266 267 267 267 268 268 268 269 269 269 269 269 269 269 269 269 270 270 270 271 271 271 271 271 272 272 273 273 273 274
264 264 264 263 264 263 263 264 264 265 266 266 266 267 267 267 267 267 268 268 268 268 269 269 269 269 269 269 269 270 270 270 270 270 271 271 271 271 271 271 271 272 272 273
265 265 264 263 263 263 264 264 264 265 265 266 266 266 266 267 267 267 267 267 268 269 269 269 269 269 269 269 269 270 270 270 270 270 270 271 271 271 271 271 271 271 272 272
265 265 264 264 263 263 264 264 264 264 265 266 266 266 266 267 267 267 268 268 269 269 269 269 269 270 270 270 271 270 270 270 270 270 270 270 270 270 270 270 271 271 271 271
265 265 264 264 263 264 264 264 265 264 265 265 265 266 266 266 267 267 267 268 269 269 268 269 270 270 271 270 270 270 270 270 269 269 269 269 269 269 269 269 269 270 270 271
266 265 265 264 264 264 263 264 264 265 265 265 265 265 265 265 266 266 267 267 268 268 268 268 269 268 268 268 269 269 269 269 268 268 268 268 268 268 268 268 269 269 270 271
266 265 265 264 264 262 262 262 263 264 265 265 265 264 265 265 265 265 266 266 266 266 267 267 266 266 267 267 267 267 267 267 267 267 268 267 268 268 268 268 269 269 270 271
266 264 263 264 263 262 262 262 262 263 263 264 263 264 265 265 265 265 265 265 265 265 265 265 266 265 266 266 266 266 266 266 267 267 267 267 267 267 267 268 268 269 270 270
266 265 265 265 264 262 263 263 262 263 263 264 264 264 264 265 265 264 265 265 265 265 265 265 265 265 265 265 266 266 266 266 266 266 267 267 267 267 267 268 268 269 270 270
Wind_Speed
2 1 1 5 8 8 5 2 4 4 3 2 8 6 5 6 7 8 8 6 6 7 5 4 4 4 3 2 2 2 3 4 5 5 6 6 7 7 6 6 5 5 4 4
2 3 2 8 10 7 5 2 1 3 2 3 5 5 5 5 6 8 9 8 7 6 3 2 4 6 6 6 6 6 7 7 8 8 8 9 9 9 9 9 9 9 9 8
2 2 4 3 10 10 5 4 4 7 7 4 4 7 7 6 7 8 9 10 11 9 6 5 8 9 9 8 8 9 10 11 11 12 12 12 12 12 12 13 13 14 14 14
1 2 2 3 9 4 14 13 10 9 8 4 2 2 4 6 7 10 11 12 13 10 8 9 10 10 10 10 9 9 10 12 14 15 15 15 15 14 14 14 15 15 15 15
1 5 4 4 7 5 5 9 15 15 13 3 7 5 12 12 12 9 11 13 13 12 11 11 10 10 11 11 11 11 11 12 13 15 17 19 19 19 19 18 18 18 17 17
1 2 1 4 9 9 4 3 16 19 17 17 12 5 2 10 11 14 12 13 13 13 13 13 12 12 12 12 12 13 13 13 14 15 16 17 18 20 21 22 23 23 22 22
4 2 2 5 14 4 2 7 19 18 17 16 9 13 21 22 20 16 18 17 17 17 16 15 15 15 14 14 14 15 15 15 15 15 16 16 16 17 18 19 21 22 23 24
1 0 2 16 4 3 4 11 19 18 18 20 21 25 23 21 18 18 20 20 20 20 20 19 18 17 17 17 16 17 16 16 15 15 15 15 15 15 16 16 17 18 19 21
2 2 4 6 8 8 11 17 21 21 21 18 24 23 22 23 21 22 21 23 25 24 23 22 21 20 19 18 18 18 18 17 16 16 15 15 14 14 14 15 16 16 16 17
4 2 9 12 4 15 23 27 23 26 29 27 25 29 30 27 28 26 24 26 27 27 27 25 23 22 21 20 19 19 19 18 17 16 15 14 14 14 14 14 15 16 15 16
4 8 17 2 24 30 39 27 30 31 32 32 29 30 30 32 31 28 24 23 25 26 26 25 24 22 21 21 20 20 20 18 16 16 14 14 15 15 15 15 16 16 15 15
5 14 10 24 34 35 31 33 34 33 32 30 28 29 29 30 29 26 23 21 21 21 23 22 22 22 22 22 21 20 20 17 16 15 14 14 14 14 14 15 15 16 17 18
13 22 24 33 24 25 30 30 30 29 30 29 27 23 24 26 25 24 22 23 21 20 21 21 22 22 21 20 20 19 18 16 15 14 12 12 12 12 13 12 14 15 16 16
9 26 16 17 27 29 27 29 28 28 27 28 28 25 25 23 20 19 20 20 23 23 23 22 22 20 17 19 19 19 17 16 13 11 11 11 11 11 11 12 13 13 12 14
26 25 21 24 26 25 26 26 27 28 28 29 28 25 24 24 22 23 20 18 19 20 19 19 18 15 15 17 18 18 17 16 15 13 11 12 11 10 11 13 14 15 14 11
26 25 24 24 25 26 25 25 25 27 28 28 26 25 25 22 21 20 17 16 16 14 12 14 15 13 15 16 17 17 17 16 15 12 13 12 11 11 13 14 14 13 13 12
21 24 26 25 24 24 25 24 23 24 26 25 25 25 22 20 18 16 13 12 11 10 11 13 13 13 14 15 16 15 14 15 15 14 12 12 12 13 13 14 13 12 11 11
15 15 16 18 22 24 23 22 22 23 24 24 24 23 20 17 15 13 11 11 11 11 11 11 11 12 13 13 14 14 13 13 14 14 14 13 12 11 10 10 10 11 11 11
16 16 17 17 18 19 21 20 21 22 23 23 23 21 18 15 13 12 11 10 9 8 6 7 6 7 10 11 11 10 11 12 13 12 12 11 10 7 6 6 8 9 11 12
17 17 17 18 18 19 21 21 21 20 20 21 21 20 18 15 13 12 10 9 7 7 5 5 4 6 7 8 11 11 10 11 12 13 12 11 10 10 10 10 11 11 11 12
19 20 19 19 19 21 20 19 19 19 19 19 18 19 18 15 14 12 10 9 9 7 9 7 6 5 4 5 7 12 13 12 12 14 14 13 12 12 13 15 16 17 16 15
20 19 19 19 20 22 18 17 17 17 18 18 18 17 17 16 14 13 11 10 10 11 8 9 6 3 7 6 6 7 7 10 10 10 12 14 14 16 17 19 19 18 17 15
20 18 18 18 20 20 19 18 15 17 15 16 19 17 16 14 12 13 13 14 14 8 8 6 12 6 3 5 4 4 12 10 9 9 12 14 16 18 18 17 15 14 13 12
19 18 18 19 19 18 21 21 15 15 15 15 18 16 15 13 11 14 11 9 10 9 8 8 10 5 5 5 5 6 8 10 12 14 15 15 16 15 14 14 13 12 11 11
18 18 19 20 19 18 21 20 18 15 13 18 18 14 13 10 11 14 13 11 8 11 9 6 6 9 10 9 9 10 12 13 13 14 15 14 14 14 13 13 12 11 11 10
19 18 17 16 16 16 21 18 17 18 16 21 17 16 12 10 9 12 13 11 11 10 9 8 8 10 9 9 9 9 10 11 12 12 14 14 13 13 13 12 11 11 10 10
18 17 18 18 17 17 21 18 16 17 16 20 17 16 15 12 9 9 10 11 12 12 12 12 11 10 10 10 9 10 10 11 11 11 12 12 12 12 12 11 11 10 10 9
Wind_Direction
59 80 97 48 30 26 45 354 343 5 300 233 191 172 157 155 157 151 159 157 146 144 125 86 63 37 13 330 275 239 226 220 217 219 219 215 212 214 216 219 223 230 238 245
88 119 82 65 33 34 51 24 282 292 349 338 178 154 152 169 189 191 197 198 192 192 199 335 342 337 326 312 298 273 253 243 237 234 234 238 241 240 239 241 245 249 255 258
100 17 163 47 2 22 50 23 319 5 338 312 182 190 182 194 212 218 216 210 209 216 237 283 310 318 315 306 292 281 270 259 250 245 245 246 248 251 254 257 256 255 256 256
45 258 112 81 24 47 81 42 23 348 343 200 319 254 222 232 235 230 215 212 218 230 255 287 305 315 318 314 304 288 274 266 260 256 255 254 255 256 258 258 258 259 260 259
13 57 117 55 10 350 354 49 22 17 23 348 346 296 258 255 251 242 227 221 226 240 260 278 292 304 311 313 308 297 285 275 267 261 259 258 259 261 261 262 262 262 261 261
46 90 112 3 328 323 254 137 15 8 6 360 339 284 346 356 280 256 247 237 241 250 262 272 283 292 299 302 302 296 290 282 276 272 268 266 264 262 263 264 264 263 263 264
35 87 134 352 325 332 232 8 343 345 336 331 322 303 300 305 295 284 253 249 250 257 263 269 277 284 288 291 293 290 286 281 277 275 274 273 271 270 269 268 268 267 266 264
277 205 179 356 338 71 28 341 331 324 319 304 301 303 301 298 296 278 270 263 263 265 266 269 273 277 280 283 285 286 284 278 273 271 269 270 270 271 272 273 273 273 273 272
318 38 62 353 90 76 1 331 330 320 319 308 300 301 301 300 293 283 278 274 269 265 266 267 269 271 273 277 277 279 278 276 271 268 267 268 269 270 272 275 277 277 277 277
314 121 322 323 230 330 334 330 331 322 316 312 303 300 296 296 292 285 279 276 270 266 265 266 268 268 269 269 271 271 272 269 267 265 263 265 267 269 270 272 276 279 280 283
274 15 344 146 331 328 326 327 322 316 315 312 311 303 300 298 296 295 287 274 267 263 262 263 263 264 265 267 267 266 265 262 260 260 258 259 262 266 271 274 273 273 276 285
302 311 293 296 314 322 324 323 321 321 319 313 312 308 306 299 295 291 284 279 269 263 262 262 263 263 263 263 262 259 258 256 254 254 255 256 261 267 271 278 278 272 272 272
288 302 307 309 310 317 319 322 320 317 312 317 316 311 308 305 300 291 282 276 271 271 268 264 263 263 261 256 254 252 252 250 248 248 250 253 261 272 282 276 281 280 279 275
321 325 318 319 319 324 325 324 323 325 325 324 321 317 314 306 302 298 291 283 275 271 268 266 262 259 251 247 249 249 246 243 242 246 244 249 258 269 282 294 299 294 284 283
327 332 324 321 327 329 331 332 330 329 329 327 327 323 319 314 305 298 295 286 276 269 264 260 257 253 245 246 246 245 244 239 235 234 241 250 259 269 280 291 296 298 297 288
326 335 332 333 331 334 335 335 331 329 330 329 328 323 316 311 306 303 298 288 281 275 264 255 255 250 249 245 243 242 242 237 229 238 252 254 251 267 283 290 291 293 292 290
337 337 336 334 336 335 333 332 331 330 329 330 328 327 321 318 315 312 311 298 284 272 261 258 258 255 249 240 239 241 242 234 224 233 244 251 255 268 280 286 288 293 296 289
335 327 329 329 331 332 334 335 334 335 335 333 333 332 329 327 324 320 317 307 296 284 278 271 260 250 244 238 234 238 236 228 225 235 245 243 251 265 275 279 283 294 301 303
341 336 337 337 336 337 333 333 333 336 340 346 341 338 337 333 329 326 323 317 310 302 292 276 265 243 242 231 234 231 226 221 224 231 230 233 238 251 277 291 294 298 302 306
345 345 343 339 342 341 339 343 339 340 348 352 349 348 349 350 348 345 343 340 333 321 323 304 284 268 247 229 209 243 236 232 231 233 229 236 244 256 269 282 293 305 313 309
350 349 348 345 342 345 345 344 346 348 349 352 351 352 352 352 356 359 358 359 2 31 346 316 286 278 259 234 209 226 238 240 239 235 234 242 256 269 280 285 287 288 292 301
352 350 352 351 350 351 356 359 360 356 354 2 4 1 359 358 2 7 13 19 21 359 354 2 7 131 333 248 259 233 238 222 229 237 242 253 266 276 283 287 287 284 279 281
352 352 354 354 354 352 7 359 5 5 5 3 1 358 359 2 6 3 358 5 358 48 24 36 356 86 234 351 314 243 230 233 239 247 261 271 277 281 283 282 281 280 272 269
352 354 356 359 355 359 358 360 357 359 8 9 5 5 3 359 2 359 356 357 9 347 330 351 7 360 319 304 281 272 270 271 272 275 277 278 280 278 278 278 275 271 266 266
355 359 2 358 358 357 352 355 356 353 350 357 355 357 7 12 11 351 350 345 344 334 330 324 343 312 306 300 288 280 274 272 272 273 273 275 275 275 273 274 270 263 260 262
1 5 359 358 2 357 357 351 354 6 358 359 357 356 353 352 358 347 356 357 358 358 354 343 331 325 321 312 303 294 287 282 278 274 275 276 275 272 268 268 267 259 260 258
9 7 358 8 12 2 2 352 355 4 13 10 358 3 2 1 360 354 359 1 360 356 352 349 344 338 332 326 316 308 301 295 291 285 279 276 273 270 267 265 260 255 253 254